Location: *
(32.8304°S, 82.6905°E)
Time: 14:07:01
(UTC+00:00)

Daily predictions for brighter satellites

Satellite Brightness Start Highest point End
(mag) Time Altitude Azimuth Time Altitude Azimuth Time Altitude Azimuth
CZ-4B R/B 3.3 13:39:58 10° SSE 13:43:57 47° E 13:48:02 10° N
Meteor 1-10 Rocket 4.5 13:38:43 10° S 13:44:16 53° E 13:49:50 10° NNE
SL-16 R/B 3.2 13:42:32 10° NNE 13:47:08 26° ENE 13:51:45 10° SE
CENTAUR R/B 4.1 13:47:49 10° SSE 13:50:00 12° SE 13:52:05 10° ESE
IGS 5A 3.4 13:47:46 10° SSE 13:51:54 63° E 13:55:58 10° N
Meteor 1-25 Rocket 4.4 13:50:13 10° NNE 13:55:34 50° E 14:00:58 10° SSE
OAO 1 Rocket 4.5 13:52:10 10° WNW 13:57:33 90° E 14:02:56 10° ESE
Meteor 1-27 Rocket 4.3 13:54:10 10° S 13:59:51 45° ESE 14:05:31 10° NNE
Cosmos 1331 Rocket 4.2 13:54:53 10° SSW 14:00:09 77° WNW 14:05:24 10° N
Cosmos 1461 3.5 14:01:22 10° N 14:04:38 29° ENE 14:07:59 10° SE
CZ-4B R/B 4.1 14:01:10 10° SE 14:05:53 28° E 14:10:36 10° NNE
ATLAS 5 CENTAUR R/B 3.0 13:59:33 10° N 14:06:49 53° ENE 14:14:01 10° SE
Meteor 1-29 3.9 14:04:12 10° S 14:06:50 39° WSW 14:09:25 10° NNW
YAOGAN 1 2.8 14:10:45 10° S 14:15:06 74° WSW 14:19:25 10° NNW
Lacrosse 5 rocket 4.2 14:14:08 10° W 14:16:37 17° SW 14:19:03 10° S
BlueWalker 3 2.6 14:14:05 10° SSW 14:17:51 45° SE 14:20:32 17° ENE
Okean O Rocket 2.8 14:17:18 10° SE 14:20:55 24° E 14:22:57 17° NE
Cosmos 1943 Rocket 2.8 14:15:52 10° S 14:21:13 41° ESE 14:25:09 17° NE
Cosmos 614 Rocket 4.3 14:19:42 10° NNW 14:24:47 69° WSW 14:29:55 10° SSE
OAO 3 Rocket 3.0 14:22:34 10° WNW 14:27:12 73° NNE 14:31:52 10° ESE
USA 186 2.8 14:27:13 10° SE 14:29:53 24° E 14:30:10 24° ENE
Spot 1 4.3 14:26:24 10° N 14:31:05 77° WNW 14:35:32 10° SSW
Okean 1 3.3 14:28:18 10° S 14:32:16 66° E 14:35:00 19° NNE
Cosmos 2278 Rocket 2.5 14:31:26 10° SSW 14:37:07 65° WNW 14:42:16 12° N
Cosmos 2237 Rocket 4.4 14:35:08 10° WNW 14:39:54 28° WSW 14:44:44 10° S
CCE 1 Rocket 3.9 14:35:15 10° W 14:39:57 47° N 14:41:39 28° NE
CZ-4C R/B 3.6 14:42:17 10° S 14:45:43 18° SE 14:47:48 14° ESE
MOS 1-B 4.4 14:41:02 10° SSE 14:46:51 61° ENE 14:52:32 10° N
Cosmos 1328 Rocket 4.0 14:44:01 10° S 14:48:10 42° E 14:49:33 32° NE
Resurs 1-3 3.5 14:44:00 10° SSE 14:48:27 83° ENE 14:52:37 11° N
MINOTAUR 4 R/B 3.9 14:47:59 29° N 14:49:29 74° WNW 14:52:47 10° SSW
Cosmos 1151 Rocket 3.2 14:46:03 10° S 14:50:27 71° W 14:53:33 18° N
Meteor 1-5 Rocket 4.3 14:46:32 10° N 14:52:30 80° E 14:58:33 10° S
Cosmos 1766 Rocket 3.6 14:50:29 12° N 14:54:27 82° W 14:58:52 10° S
EPKM 4.4 14:43:04 10° W 14:54:58 30° NW 14:57:22 21° N
Resurs 01 Rocket 2.2 14:51:49 10° SSE 14:55:57 36° E 14:56:33 34° ENE
Cosmos 1140 Rocket 3.6 14:54:16 25° NNE 14:56:58 48° ENE 15:01:56 10° SSE
Meteor 2-4 Rocket 3.8 14:53:19 10° S 14:58:51 54° E 15:01:09 32° NE
Cosmos 1271 Rocket 2.7 14:58:11 41° NNE 14:59:20 62° E 15:03:11 10° SSE
Cosmos 2251 Rocket 4.0 14:58:49 32° NE 15:00:32 41° E 15:05:34 10° SSE
Okean-O 3.6 14:56:49 10° SE 15:00:26 29° E 15:00:26 29° E
Cosmos 1408 Rocket 4.2 15:01:47 34° E 15:01:56 34° E 15:05:53 10° SSE
Landsat 4 3.5 14:58:22 10° SSE 15:01:59 63° ENE 15:02:35 53° NNE
S3M 4.2 15:00:12 27° NNE 15:03:31 52° E 15:09:42 10° SSE
CZ-4 R/B 2.6 15:01:13 10° S 15:04:56 40° WSW 15:08:41 10° NW
Meteor 1-14 Rocket 4.4 15:05:04 33° NNE 15:07:17 51° E 15:12:54 10° SSE
SL-08 R/B 4.4 15:01:07 10° S 15:07:20 73° E 15:10:34 30° NNE
GOES 2 Rocket 3.2 15:03:57 10° WNW 15:08:01 46° N 15:08:14 45° NNE
Cosmos 1553 Rocket 4.1 15:03:18 10° NNW 15:09:25 72° W 15:15:34 10° S
Cosmos 1743 3.2 15:16:07 43° ESE 15:16:07 43° ESE 15:19:15 10° SSE
NOSS 3-2 (A) 3.6 15:12:24 10° SSW 15:18:14 49° SE 15:19:45 39° E
Atlas Centaur 2 2.6 15:11:52 10° NW 15:18:26 43° NNE 15:19:12 41° NE
Cosmos 1992 Rocket 4.2 15:13:56 10° SSW 15:19:09 68° WNW 15:21:18 35° N
Meteor 1-18 Rocket 4.1 15:14:25 10° S 15:20:08 80° E 15:22:08 42° NNE
Cosmos 407 Rocket 3.4 15:20:43 47° NNE 15:21:54 61° ENE 15:27:02 10° SSE
CSL-04 Rocket 3.6 15:18:41 10° SSE 15:24:12 90° W 15:27:17 28° NNW
SPOT 1/Viking Rocket 3.8 15:20:13 10° S 15:25:23 69° WSW 15:28:58 20° NNW
Okean 3 Rocket 4.1 15:23:11 26° NNW 15:25:35 60° W 15:30:09 10° S
Cosmos 1656 Rocket 4.2 15:24:47 10° S 15:29:53 39° ESE 15:30:36 37° E
SL-16 R/B 3.8 15:25:52 10° NW 15:30:59 35° WSW 15:36:10 10° S
ADEOS Rocket 3.5 15:29:22 10° S 15:36:02 61° WSW 15:41:27 13° NNW
GEOS 3 Rocket 4.2 15:39:03 39° ESE 15:39:48 41° SE 15:44:31 10° SSW
IRS-1C Rocket 4.3 15:35:25 10° SSE 15:40:14 49° E 15:40:14 49° E
CENTAUR R/B 1.7 15:36:07 10° SSW 15:41:14 76° WNW 15:41:41 69° NNW
Cosmos 1745 Rocket 3.9 15:35:02 10° S 15:41:29 85° E 15:43:18 50° N
BREEZE-M DEB (TANK) 3.5 15:43:38 54° NNW 15:44:34 74° NE 15:54:13 10° SE
Cosmos 2315 Rocket 3.9 15:43:25 53° NNE 15:44:54 74° E 15:51:13 10° S
Iridium 4 Rocket 3.9 15:45:11 53° E 15:45:33 54° E 15:51:14 10° SSE
Cosmos 1190 Rocket 4.2 15:47:22 54° ESE 15:47:22 54° ESE 15:51:55 10° SSE
Cosmos 1943 3.1 15:47:38 50° NNW 15:49:13 90° ENE 15:54:59 10° SSE
ATLAS 5 CENTAUR R/B 4.4 15:44:40 10° WNW 15:51:26 34° SW 15:57:57 10° SSE
MOS 1 4.2 15:45:47 10° SSE 15:51:29 66° ENE 15:51:42 66° ENE
CARTOSAT-1 4.1 15:50:09 10° S 15:54:23 53° WSW 15:54:49 51° W
BlueWalker 3 4.4 15:53:32 10° W 15:55:06 15° WNW 15:55:06 15° WNW
Cosmos 1515 Rocket 3.9 15:51:41 10° SSW 15:55:46 62° WSW 15:55:46 62° WSW
Cosmos 883 Rocket 4.5 15:54:51 47° NNW 15:56:43 78° W 16:02:59 10° S
Okean O Rocket 3.8 15:53:29 10° SSW 15:57:04 24° WSW 16:00:20 11° WNW
Cosmos 1500 Rocket 3.8 15:57:47 68° SW 15:57:47 68° SW 16:02:00 10° S
Terra 3.9 15:53:59 10° SE 15:55:21 16° SE 15:55:21 16° SE
Meteor 1-11 Rocket 3.6 16:01:15 72° E 16:01:15 72° E 16:06:43 10° SSE
NOSS 3-4 (C) 4.2 15:53:48 10° NNW 16:02:26 84° WSW 16:10:51 10° SSE
NOSS 3-4 (A) 4.2 15:53:45 10° NNW 16:02:27 84° WSW 16:10:52 10° SSE
Cosmos 2369 Rocket 2.1 15:58:48 10° SSW 16:04:27 70° ESE 16:04:27 70° ESE
Cosmos 1943 Rocket 4.0 16:00:20 10° SW 16:04:35 22° W 16:06:41 18° NW
Cosmos 2263 4.5 16:03:49 10° S 16:09:07 54° ESE 16:09:07 54° ESE
OAO 3 Rocket 3.7 16:05:58 10° W 16:09:44 53° WSW 16:09:44 53° WSW
ERS-1 Rocket 4.3 16:06:24 10° SSE 16:09:17 29° SE 16:09:17 29° SE
Lacrosse 4 Rocket 4.1 16:23:09 12° SSE 16:23:09 12° SSE 16:23:25 10° SSE
CZ-2C R/B 4.4 16:20:38 54° WSW 16:20:38 54° WSW 16:24:44 10° SSW
Meteor 2-9 Rocket 4.4 16:25:37 62° SE 16:25:37 62° SE 16:30:30 10° SSE
H-2A R/B 3.7 16:32:21 30° S 16:32:21 30° S 16:34:42 10° S
Resurs 01 Rocket 4.2 16:29:14 10° SSW 16:32:02 16° WSW 16:34:04 13° W
BREEZE-M TANK 4.2 16:28:24 10° SW 16:32:47 59° SE 16:36:26 36° E
CZ-4C R/B 3.2 16:29:56 10° SW 16:32:55 30° WSW 16:32:55 30° WSW
NOSS 3-2 (C) 3.5 16:33:42 10° SSW 16:38:40 61° SW 16:38:40 61° SW
Cosmos 1763 Rocket 4.4 16:44:48 10° SSW 16:48:16 43° S 16:48:16 43° S
Ariane Rocket 3.8 16:47:21 10° S 16:51:05 48° S 16:51:05 48° S
SPOT 5 4.3 16:51:56 10° S 16:54:48 31° SW 16:54:48 31° SW
Cosmos 2184 Rocket 4.3 16:50:16 10° S 16:55:48 63° SSE 16:55:48 63° SSE
Longmarch 3A Rocket 4.4 16:40:05 10° W 17:01:13 43° NW 17:01:13 43° NW
ATLAS 2AS CENTAUR R/B 4.4 17:20:53 19° ESE 17:20:53 19° ESE 17:23:10 10° SE
USA 238 DEB 4.2 17:19:55 10° SW 17:24:42 46° WSW 17:24:42 46° WSW
USA 238 4.2 17:19:56 10° SW 17:24:45 46° WSW 17:24:45 46° WSW
Terra 3.8 17:31:22 10° SSW 17:34:05 24° SW 17:34:05 24° SW
SJ 16-02 4.0 18:18:30 17° SSE 18:18:30 17° SSE 18:19:31 10° SSE
Cosmos 1833 Rocket 4.0 18:20:23 37° S 18:20:23 37° S 18:23:47 10° SSE
Cosmos 2082 Rocket 3.7 18:42:42 30° SE 18:42:42 30° SE 18:45:48 10° SSE
ATLAS 2AS CENTAUR R/B 3.4 19:08:16 42° SW 19:08:16 42° SW 19:14:32 10° SSE
ADEOS II 3.3 19:23:15 37° SE 19:23:15 37° SE 19:27:35 10° S
Cosmos 1697 Rocket 3.9 19:18:17 10° SSW 19:21:34 36° SSW 19:21:34 36° SSW
Resurs 1-4 Rocket 3.0 19:35:48 44° SSW 19:35:48 44° SSW 19:39:24 10° SSW
IDEFIX/ARIANE 42P 3.5 19:39:13 43° SSW 19:39:13 43° SSW 19:42:45 10° SSW
COSMOS 2406 4.0 19:41:23 44° SSW 19:41:23 44° SSW 19:45:52 10° S
CZ-2D R/B 2.9 19:46:15 47° SSW 19:46:15 47° SSW 19:50:10 10° SSW
USA 215 3.9 19:51:57 42° WSW 19:51:57 42° WSW 19:56:19 10° SW
Cosmos 1980 Rocket 2.7 19:47:11 10° SSW 19:51:37 56° SSW 19:51:37 56° SSW
Cosmos 2369 4.0 19:47:56 10° SSW 19:52:51 63° SSE 19:52:51 63° SSE
NOSS 3-1 (C) 3.6 19:49:17 10° SSW 19:55:09 55° SE 19:55:09 55° SE
FENGYUN 3A 3.9 20:06:45 65° ESE 20:06:47 65° ESE 20:12:11 10° S
Cosmos 371 Rocket 3.9 20:11:15 56° SSE 20:11:15 56° SSE 20:15:10 10° SSE
ISS -0.9 20:15:24 18° SSE 20:15:24 18° SSE 20:16:32 10° SSE
Cosmos 1727 Rocket 4.0 20:15:28 64° NE 20:16:09 70° E 20:22:24 10° S
Cosmos 1953 4.4 20:18:34 22° SSW 20:18:34 22° SSW 20:20:13 10° S
Okean 2 Rocket 4.4 20:22:25 33° E 20:22:34 33° E 20:26:36 10° SSE
Cosmos 2082 Rocket 3.9 20:24:32 20° WSW 20:24:38 20° WSW 20:28:47 10° SSW
Cosmos 2278 4.1 20:24:20 10° SSW 20:30:02 62° ESE 20:32:22 35° NE
ATLAS 3B R/B 2.4 20:29:52 10° SSW 20:36:11 89° ESE 20:39:10 34° NNE
Cosmos 1605 Rocket 4.0 20:30:48 10° SSW 20:36:47 56° W 20:36:48 56° W
CZ-2C R/B 3.2 20:38:01 62° NNE 20:39:01 85° ESE 20:44:46 10° S
Cosmos 1975 Rocket 3.9 20:34:49 10° SSW 20:37:53 42° SSW 20:37:53 42° SSW
Tiangong 0.2 20:45:20 24° ESE 20:45:20 24° ESE 20:46:46 10° ESE
SL-8 R/B 3.6 20:46:26 88° S 20:46:26 88° S 20:51:16 10° SE
Cosmos 2173 Rocket 4.5 20:40:37 10° S 20:46:39 55° E 20:50:37 22° NNE
Cosmos 2360 Rocket 4.2 20:45:40 10° S 20:50:26 27° ESE 20:55:11 10° ENE
MOZ.5/SAFIR/RUBIN 5/SL-8 3.6 20:47:48 10° S 20:52:31 80° WSW 20:52:42 78° WNW
Meteor 1-11 4.5 20:46:56 10° S 20:52:45 69° E 20:55:43 29° NNE
CZ-2C R/B 3.3 20:51:39 18° NE 20:55:19 51° ESE 21:00:20 10° S
In-Cosmos 22 Rocket 4.3 20:49:30 10° S 20:55:24 77° E 20:58:06 33° NNE
Cosmos 2100 Rocket 4.1 20:50:10 10° S 20:56:22 72° E 21:00:06 25° NNE
Centaur D AC-29 2.9 21:00:14 16° NE 21:00:14 16° NE 21:00:58 10° ENE
Lacrosse 5 rocket 3.2 20:55:15 10° SSW 20:58:29 28° SE 21:01:47 10° ENE
Cosmos 1153 Rocket 4.5 20:53:01 10° SSW 20:59:12 64° W 21:00:51 47° NNW
ATLAS CENTAUR R/B 1.7 20:55:52 10° SSW 21:00:18 69° ESE 21:02:22 30° NE
Cosmos 2151 Rocket 3.4 21:00:09 76° NW 21:00:25 81° W 21:05:00 10° S
Cosmos 1867 3.9 20:56:05 10° SW 21:00:34 46° W 21:00:34 46° W
ADEOS II 3.8 21:04:09 18° WSW 21:04:09 18° WSW 21:06:18 10° SW
Thor Agena Rocket 3.4 21:02:29 58° NW 21:03:06 63° WNW 21:08:14 10° SSW
SL-27 R/B 3.8 21:05:28 28° E 21:05:28 28° E 21:08:02 10° SE
Cosmos 2322 Rocket 3.0 21:01:22 10° S 21:06:53 52° ESE 21:12:20 10° NE
Meteor 1-4 Rocket 3.6 21:05:32 10° SSW 21:07:28 33° SSW 21:07:28 33° SSW
Cosmos 1833 4.2 21:07:16 46° NNW 21:09:08 88° WSW 21:14:58 10° SSE
Cosmos 1825 4.2 21:06:52 10° SSW 21:07:59 17° SW 21:07:59 17° SW
Cosmos 2333 Rocket 3.9 21:07:34 10° S 21:12:39 33° ESE 21:17:42 10° NE
ALOS 2.9 21:13:19 37° W 21:13:19 37° W 21:17:11 10° SSW
Cosmos 1455 4.4 21:17:11 14° SW 21:17:11 14° SW 21:18:17 10° SW
YAOGAN 6 3.5 21:14:53 27° NE 21:16:17 43° ESE 21:19:30 10° S
Cosmos 2084 3.9 21:15:59 42° N 21:17:10 57° ENE 21:21:44 10° SE
Hubble Space Telescope 3.1 21:18:12 12° NE 21:18:12 12° NE 21:19:20 10° NE
PAYLOAD A 3.8 21:19:13 22° NNE 21:22:19 87° E 21:27:06 10° SSW
SL-16 R/B 2.2 21:22:59 10° SSW 21:28:37 61° WNW 21:33:16 15° N
Cosmos 332 Rocket 4.4 21:28:58 34° WNW 21:30:06 40° WSW 21:34:42 10° S
METEOR-M 4.2 21:27:33 29° N 21:30:12 58° W 21:35:33 10° SSW
Envisat 2.9 21:27:34 21° N 21:31:01 75° WNW 21:36:10 10° SSW
Geosat 3.9 21:26:42 10° NNE 21:31:43 81° WNW 21:36:48 10° SSW
USA 229 DEB 3.9 21:26:00 10° SSW 21:32:25 62° ESE 21:38:22 10° NE
USA 229 4.0 21:26:04 10° SSW 21:32:29 61° ESE 21:38:26 10° NE
Cosmos 1455 Rocket 4.0 21:30:37 13° NNE 21:34:12 44° E 21:38:23 10° SSE
SL-16 R/B 3.1 21:28:30 10° SSE 21:34:37 55° ENE 21:40:37 10° N
CZ-2C R/B 3.6 21:29:21 10° SSE 21:34:41 46° E 21:40:02 10° N
Cosmos 1346 Rocket 2.8 21:33:24 30° N 21:35:10 72° E 21:39:04 10° SSE
Delta 128 3.9 21:38:08 36° NW 21:39:26 46° N 21:43:44 10° ENE
Cosmos 1441 Rocket 3.9 21:39:44 34° W 21:40:13 35° WSW 21:43:50 10° S
Cosmos 1898 Rocket 4.1 21:38:30 30° WNW 21:40:26 41° WSW 21:45:27 10° S
Cosmos 1459 Rocket 4.2 21:35:34 10° SSW 21:41:46 52° W 21:46:07 19° NNW
NOSS 3-1 (A) 3.5 21:39:12 10° SW 21:44:21 36° WNW 21:46:55 22° NNW
Cosmos 923 Rocket 4.3 21:40:08 10° SSW 21:45:24 70° ESE 21:50:38 10° NNE
Cosmos 1864 Rocket 4.5 21:39:51 10° S 21:46:11 73° W 21:52:29 10° N
IRS-1D 4.1 21:44:37 26° NNW 21:46:59 39° W 21:51:58 10° SSW
H-2A R/B 4.2 21:44:00 10° NE 21:48:20 28° ESE 21:52:48 10° SSE
Cosmos 1242 Rocket 2.5 21:45:13 10° S 21:48:30 68° E 21:51:39 11° NNE
USA 281 3.1 21:45:00 10° NNE 21:51:31 70° WNW 21:58:07 10° SSW
BREEZE-M DEB (TANK) 4.0 21:46:17 21° NW 21:51:44 59° NE 21:55:18 10° ESE
Cosmos 1937 Rocket 3.9 21:49:38 26° NW 21:52:09 44° WSW 21:57:06 10° S
USA 32 4.0 21:54:46 14° N 21:59:19 71° W 22:04:37 10° S
Cosmos 1680 Rocket 3.8 21:57:18 10° SSW 22:02:40 74° ESE 22:07:58 10° NNE
Meteor 2-15 4.4 21:58:10 10° S 22:04:18 81° W 22:10:24 10° N
Cosmos 1447 Rocket 4.5 21:59:33 10° N 22:05:45 85° W 22:12:06 10° S
USA 234 3.7 22:02:20 10° SE 22:08:50 57° NE 22:15:15 10° NNW
Meteor 1-28 Rocket 3.7 22:05:27 10° S 22:08:54 39° WSW 22:11:03 19° NW
Cosmos 2016 Rocket 4.3 22:04:11 10° SSW 22:10:19 47° W 22:16:20 10° NNW
Cosmos 2112 Rocket 4.2 22:08:04 10° SSW 22:13:28 79° ESE 22:18:49 10° NNE
Cosmos 921 Rocket 2.9 22:13:41 10° SSW 22:17:55 85° WNW 22:22:06 10° NNE
Tiangong 0.0 22:18:07 10° WSW 22:20:38 21° SSW 22:23:09 10° SE
CZ-2C R/B 1.8 22:23:31 13° NNW 22:25:11 23° NNE 22:27:22 10° E
UNK 3.9 22:20:58 10° S 22:25:32 55° WSW 22:30:01 10° NNW
ATLAS 3B R/B 4.2 22:24:41 10° W 22:25:56 11° WNW 22:26:12 11° WNW
Cosmos 2233 Rocket 4.3 22:26:14 10° SSW 22:32:19 49° W 22:38:19 10° NNW
Meteor 2-19 Rocket 4.5 22:26:50 10° NNW 22:32:49 65° W 22:38:55 10° S
CZ-2C R/B 4.1 22:30:59 11° NW 22:33:39 15° W 22:36:36 10° WSW
Cosmos 2360 Rocket 2.8 22:29:18 10° SW 22:34:24 34° WNW 22:39:27 10° NNW
Cosmos 1892 Rocket 3.8 22:31:14 10° SSW 22:35:32 49° W 22:39:48 10° NNW
Lacrosse 5 rocket 2.3 22:34:00 10° WSW 22:36:53 21° WNW 22:39:50 10° N
Cosmos 2219 Rocket 2.2 22:35:59 10° SSW 22:41:35 69° WNW 22:47:08 10° N
Cosmos 1484 Rocket 3.6 22:38:56 10° NNW 22:42:10 28° W 22:45:24 10° SW
ARIANE 5 R/B 2.6 22:37:15 10° N 22:42:28 71° WNW 22:47:42 10° SSW
Cosmos 1939 Rocket 2.8 22:39:26 10° NNE 22:43:15 90° N 22:47:07 10° SSW
Cosmos 2322 Rocket 3.6 22:46:57 10° WSW 22:50:22 17° W 22:53:47 10° NW
Cosmos 1125 Rocket 3.7 22:46:30 10° N 22:51:48 79° ENE 22:57:07 10° SSE
